Regional Weather Roundup
Issued by NWS Huntsville, AL

Home | Current Version | Previous Version | Text Only | Print | Product List | Glossary On
Versions: 1 2 3 4 5 6 7 8 9 10 11 12 13 14 15 16 17 18 19 20 21 22 23 24 25 26 27 28 29 30 31 32 33 34 35 36 37 38 39 40 41 42 43 44 45 46 47 48 49 50
000
ASUS44 KHUN 271310
RWRHUN

WEATHER ROUNDUP FOR THE TENNESSEE VALLEY
NATIONAL WEATHER SERVICE HUNTSVILLE AL
800 AM CDT THU APR 27 2017

ALZ001>004-271400-
NORTHWEST ALABAMA

CITY           SKY/WX    TMP DP  RH WIND       PRES   REMARKS
COURTLAND HCN    N/A     63 N/A N/A W8          N/A
RUSSELLVILLE     N/A     63 N/A N/A MISG        N/A
SHOALS AIRPORT SUNNY     65  60  84 W13       29.74R
SHOALS TVA RES   N/A     63 N/A N/A MISG        N/A
$$

ALZ005>007-016-271400-
NORTH CENTRAL ALABAMA

CITY           SKY/WX    TMP DP  RH WIND       PRES   REMARKS
CULLMAN AG STN   N/A     63 N/A N/A W7          N/A
DECATUR AP     PTSUNNY   64  61  90 W7        29.75R
HUNTSVILLE AP  MOSUNNY   65  62  90 SW8       29.74R
MERIDIANVILLE  CLOUDY    63  59  88 W6        29.74R
REDSTONE ARSN  CLOUDY    64  63  94 W6        29.73R
VINEMONT AP    PTSUNNY   63  60  91 SW7       29.77R
$$

ALZ008>010-271400-
NORTHEAST ALABAMA

CITY           SKY/WX    TMP DP  RH WIND       PRES   REMARKS
ALBERTVILLE    LGT RAIN  63  63 100 W10       29.75R
FORT PAYNE     CLOUDY    64  63  94 S7        29.73R
SCOTTSBORO AP  CLOUDY    64  64 100 SW9G16    29.74R
SCOTTSBORO HCN   N/A     64 N/A N/A MISG        N/A
VALLEY HEAD      N/A     64 N/A N/A MISG        N/A
$$

TNZ076-096-097-271400-
SOUTHEASTERN MIDDLE TENNESSEE

CITY           SKY/WX    TMP DP  RH WIND       PRES   REMARKS
TULLAHOMA      CLOUDY    63  61  94 W10       29.74R
WINCHESTER     CLOUDY    63  61  94 W6        29.74R
$$

...SURROUNDING SITES...

CITY           SKY/WX    TMP DP  RH WIND       PRES   REMARKS
ATLANTA        CLOUDY    68  66  93 S14G20    29.80S
ANNISTON       CLOUDY    70  68  93 SW7       29.73S
BIRMINGHAM     CLOUDY    67  63  87 W5        29.77R
CHATTANOOGA    RAIN      63  62  97 S5        29.73S FOG
CORINTH        CLOUDY    55  52  88 W10       29.78R
DALTON         CLOUDY    63  63 100 S5        29.75S
GADSDEN        CLOUDY    69  67  93 SW6       29.73R
GOLDEN TRNGL   PTSUNNY   64  57  77 CALM      29.72R
HALEYVILLE     CLOUDY    62  59  90 SW6       29.78R
JACKSON TN     CLOUDY    52  48  86 W9        29.79R
MEMPHIS        CLOUDY    52  46  80 W9        29.80R
NASHVILLE      PTSUNNY   65  60  84 SW6       29.70R
OXFORD MS      CLOUDY    50  48  93 NW9       29.83R
ROME           CLOUDY    68  64  87 S6        29.73S
SAVANNAH       CLOUDY    55  54  94 NW3       29.76R
TUPELO         CLOUDY    57  53  86 NW12G18   29.78R
TUSCALOOSA     PTSUNNY   64  62  93 W3        29.76R
$$

...GULF COAST WEATHER...

CITY           SKY/WX    TMP DP  RH WIND       PRES   REMARKS
GULFPORT       CLOUDY    67  61  81 NW12      29.78R
PASCAGOULA     CLOUDY    68  62  81 N6        29.78R
MOBILE         CLOUDY    66  61  84 NW5       29.79R
GULF SHORES    CLOUDY    75  75 100 S10G25    29.78R
PENSACOLA      CLOUDY    77  73  87 S15       29.78R FOG
DESTIN         CLOUDY    78  78 100 S12G20    29.81S
PANAMA CITY    CLOUDY    75  72  91 S9        29.87R FOG
APPALACHICOLA  PTSUNNY   77  74  90 S13       29.87R
$$




USA.gov is the U.S. government's official web portal to all federal, state and local government web resources and services.